[[{"header":{"parameterUnit":"m.s-1","parameterCategory":1,"la1":30.2991,"la2":30.254,"lo1":-89.0895,"lo2":-89.0444,"dy":0.0017,"dx":0.0017,"nx":28,"ny":28,"refTime":"2025-09-03T09:00:00:Z","depth":0,"parameterNumber":2,"parameterNumberName":"U-component_of_WINDS"},"data":[0,0,0,0,0,0,0,0,0,0,0,0,0,0,0,0,0,0,0,0,0,0,0,0,0,0,0,0,0,0,0,0,0,0,0,0,0,0,0,0,0,0,0,0,0,0,0,0,0,0,0,0,0,0,0,0,0,0,1.5473,1.5472,0,1.5423,1.5422,1.5422,1.5367,1.5366,1.5365,1.5364,1.5314,1.5313,1.5312,0,0,0,0,0,0,0,0,0,0,0,0,0,1.5519,1.5519,1.5473,1.5472,1.5472,1.5423,1.5422,1.5422,1.5367,1.5366,1.5365,1.5364,1.5314,1.5313,1.5312,0,0,0,0,0,0,0,0,0,0,0,0,0,1.5487,1.5519,1.5473,1.5438,1.5435,1.5423,1.5422,1.5422,1.5367,1.5366,1.5365,1.5364,1.5314,1.5313,1.5312,1.5331,0,0,1.531,1.5309,0,0,0,0,0,0,0,0,1.5489,1.5486,1.5444,1.5441,1.5437,1.54,1.542,1.5391,1.5367,1.5393,1.5364,1.5363,1.5343,1.534,1.5333,1.5329,1.5326,1.531,1.5309,1.5309,1.5308,0,0,0,0,0,0,0,1.5491,1.5487,1.5453,1.5444,1.5439,1.5425,1.5419,1.5414,1.5375,1.5391,1.5386,1.5381,1.5341,1.5334,1.5332,1.5326,1.531,1.5309,1.5308,1.5308,1.533,1.5331,0,0,0,0,0,0,1.5499,1.549,1.5455,1.5452,1.5461,1.5425,1.5418,1.5413,1.5375,1.5368,1.5382,1.5379,1.5336,1.5333,1.533,1.5346,1.5309,1.5308,1.5307,1.5329,1.533,1.5331,0,0,0,0,0,0,1.55,1.5496,1.5457,1.5469,1.5463,1.5426,1.542,1.5413,1.5406,1.5369,1.5362,1.5382,1.5335,1.5331,1.533,1.5344,1.5307,1.5306,1.5327,1.5329,1.5331,1.5381,0,0,0,0,0,0,1.5502,1.5497,1.5504,1.547,1.5463,1.5459,1.5421,1.5412,1.5404,1.5399,1.5367,1.5361,1.5334,1.5332,1.5329,1.5342,1.5306,1.5326,1.5328,1.533,1.5378,1.5384,1.539,0,0,0,0,0,1.5504,1.5521,1.5505,1.5501,1.5471,1.546,1.5455,1.5424,1.5406,1.5412,1.5388,1.5362,1.5343,1.5332,1.5329,1.5341,1.5325,1.5328,1.533,1.5375,1.5383,1.5389,0,0,0,0,0,0,1.5559,1.5516,1.5498,1.5505,1.5486,1.545,1.5457,1.5434,1.542,1.5416,1.5377,1.5371,1.5374,1.5358,1.5346,1.5355,1.533,1.5332,1.5366,1.5373,1.5378,1.5381,1.5305,0,0,0,0,0,1.5572,1.5566,1.5529,1.5539,1.5531,1.5496,1.549,1.5467,1.5446,1.5438,1.5414,1.5395,1.5384,1.5378,1.5366,1.5376,1.5367,1.5383,1.5388,1.5393,1.5395,1.5396,1.5401,1.534,1.534,1.534,0,0,1.5598,1.5574,1.5573,1.5549,1.5532,1.5526,1.5489,1.5486,1.548,1.5437,1.5434,1.5416,1.5392,1.5395,1.5396,1.5382,1.541,1.5397,1.5401,1.54,1.5399,1.5405,1.541,1.5341,1.5341,1.5341,0,0,1.5643,1.5626,1.563,1.5613,1.5588,1.5564,1.5565,1.5533,1.5518,1.5515,1.5481,1.5475,1.5458,1.5441,1.543,1.5467,1.5441,1.5464,1.5494,1.5495,1.55,1.5504,1.5514,1.5519,1.5466,1.5466,1.5467,0,1.5679,1.5669,1.5636,1.5633,1.5622,1.5583,1.5586,1.5572,1.5544,1.5537,1.5522,1.5498,1.5479,1.5477,1.5485,1.5479,1.5477,1.5467,1.5502,1.5506,1.5509,1.5518,1.5523,1.5469,1.5469,1.5469,1.5468,0,1.5714,1.5707,1.5714,1.5687,1.5677,1.5678,1.5643,1.5638,1.5616,1.5593,1.5589,1.5564,1.5546,1.5544,1.5523,1.5538,1.553,1.5509,1.5482,1.5518,1.5526,1.553,1.5473,1.5472,1.5471,1.5471,0,0,1.5792,1.5744,1.5747,1.5733,1.5701,1.5695,1.5693,1.5674,1.5669,1.5651,1.5647,1.5633,1.5612,1.56,1.5577,1.5578,1.5605,1.5557,1.5556,1.5564,1.5617,1.5631,1.5636,1.5589,1.5589,1.559,1.5618,0,1.5829,1.5822,1.5791,1.5794,1.5786,1.5747,1.5745,1.5725,1.5704,1.5693,1.567,1.5659,1.5635,1.5627,1.5627,1.5602,1.5615,1.56,1.5583,1.5583,1.5588,1.564,1.5655,1.5683,1.5621,1.5622,1.5622,0,1.5871,1.5854,1.5856,1.5821,1.5817,1.5816,1.5794,1.5786,1.5761,1.5745,1.5731,1.5704,1.5698,1.5675,1.5665,1.5656,1.5647,1.5633,1.5634,1.5629,1.5603,1.5635,1.5691,1.5695,1.5627,1.5627,1.5626,0,1.5924,1.5902,1.5899,1.5889,1.585,1.5849,1.5833,1.5807,1.5797,1.5778,1.5771,1.5753,1.5742,1.5728,1.5696,1.5683,1.5689,1.5664,1.5674,1.5675,1.5676,1.5676,1.573,1.5675,1.5675,1.5675,1.5674,0,1.5968,1.5969,1.5922,1.592,1.592,1.5885,1.5885,1.5865,1.5842,1.5835,1.5801,1.5795,1.5755,1.5743,1.5719,1.5713,1.5709,1.5695,1.5688,1.5696,1.5698,1.5689,1.5685,1.5676,1.5675,1.5675,1.5675,0,1.6026,1.5995,1.5989,1.5952,1.5942,1.5944,1.5911,1.5907,1.5884,1.5875,1.5871,1.5834,1.5818,1.5786,1.5762,1.5745,1.5744,1.5734,1.5752,1.5748,1.5759,1.5758,1.5807,1.5811,1.5756,1.5756,1.5757,0,1.6055,1.6055,1.6017,1.601,1.5994,1.5983,1.5972,1.5937,1.5926,1.5897,1.5896,1.5878,1.5861,1.5838,1.5809,1.579,1.5777,1.5795,1.5773,1.5781,1.5774,1.5773,1.5772,1.58,1.58,1.5801,1.5802,0,1.6108,1.6092,1.6078,1.6057,1.6045,1.6027,1.6008,1.6004,1.5963,1.5953,1.5937,1.5924,1.5898,1.588,1.5856,1.5838,1.5812,1.5809,1.581,1.5817,1.5827,1.5819,1.5763,1.5807,1.5807,1.5806,1.5806,1.5806,1.615,1.6147,1.612,1.6104,1.6086,1.6068,1.6062,1.6037,1.6023,1.5999,1.5979,1.5964,1.5937,1.5902,1.5885,1.5872,1.5859,1.5862,1.5862,1.5862,1.5865,1.5831,1.5868,1.5868,1.5867,1.5867,1.5867,0,1.6199,1.6179,1.6165,1.6139,1.6126,1.6103,1.608,1.6071,1.6057,1.6035,1.6019,1.5998,1.598,1.5949,1.5927,1.5922,1.591,1.5918,1.5917,1.5912,1.5879,1.5879,1.5928,1.5928,1.5928,1.5928,1.5928,1.5928,1.6223,1.6216,1.6197,1.618,1.616,1.6145,1.6133,1.6115,1.6097,1.6076,1.606,1.604,1.6013,1.5989,1.597,1.5961,1.5954,1.5965,1.5952,1.5921,1.5915,1.591,1.5909,1.5964,1.5964,1.5987,1.5987,1.5987]},{"header":{"parameterUnit":"m.s-1","parameterCategory":1,"la1":30.2991,"la2":30.254,"lo1":-89.0895,"lo2":-89.0444,"dy":0.0017,"dx":0.0017,"nx":28,"ny":28,"refTime":"2025-09-03T09:00:00:Z","depth":0,"parameterNumber":3,"parameterNumberName":"V-component_of_WINDS"},"data":[0,0,0,0,0,0,0,0,0,0,0,0,0,0,0,0,0,0,0,0,0,0,0,0,0,0,0,0,0,0,0,0,0,0,0,0,0,0,0,0,0,0,0,0,0,0,0,0,0,0,0,0,0,0,0,0,0,0,4.7816,4.7817,0,4.7866,4.7867,4.7867,4.7817,4.7815,4.7813,4.7811,4.7856,4.7859,4.7862,0,0,0,0,0,0,0,0,0,0,0,0,0,4.767,4.7673,4.7816,4.7817,4.7818,4.7866,4.7867,4.7868,4.7817,4.7815,4.7812,4.781,4.7855,4.7859,4.7862,0,0,0,0,0,0,0,0,0,0,0,0,0,4.7728,4.7674,4.7816,4.7798,4.7797,4.7866,4.7867,4.7868,4.7817,4.7815,4.7812,4.7809,4.7854,4.7858,4.7863,4.795,0,0,4.7877,4.7879,0,0,0,0,0,0,0,0,4.7725,4.7734,4.78,4.78,4.7799,4.7832,4.7832,4.7895,4.7818,4.781,4.7811,4.7807,4.785,4.7855,4.7871,4.7952,4.7954,4.7877,4.788,4.7882,4.7883,0,0,0,0,0,0,0,4.7721,4.7731,4.7836,4.7801,4.78,4.7786,4.7791,4.7844,4.7846,4.781,4.7807,4.7814,4.7849,4.7866,4.7871,4.7955,4.7877,4.7881,4.7884,4.7886,4.8107,4.811,0,0,0,0,0,0,4.772,4.7728,4.7834,4.7837,4.7754,4.7791,4.7796,4.7824,4.7845,4.7845,4.7816,4.7811,4.786,4.7866,4.7873,4.7974,4.7882,4.7886,4.7889,4.8104,4.8108,4.8111,0,0,0,0,0,0,4.7717,4.773,4.7832,4.7782,4.7794,4.7796,4.7828,4.7827,4.7844,4.785,4.7849,4.7834,4.7858,4.7866,4.7931,4.7975,4.7888,4.7892,4.81,4.8105,4.8109,4.8178,0,0,0,0,0,0,4.7713,4.7729,4.7764,4.7783,4.7797,4.7892,4.7831,4.783,4.7853,4.7847,4.7866,4.7866,4.7856,4.7924,4.7935,4.7979,4.7896,4.8096,4.8102,4.8108,4.8172,4.8185,4.8195,0,0,0,0,0,4.7708,4.7781,4.7766,4.7779,4.7841,4.7895,4.7902,4.7891,4.7857,4.789,4.7893,4.7865,4.7969,4.7931,4.7943,4.7989,4.8093,4.8101,4.8107,4.8167,4.8182,4.8195,0,0,0,0,0,0,4.7765,4.7783,4.7767,4.7849,4.7871,4.7886,4.7928,4.7908,4.7939,4.7932,4.7915,4.7919,4.7988,4.7995,4.7953,4.8073,4.8025,4.8035,4.8066,4.8081,4.8092,4.8088,4.79,0,0,0,0,0,4.7787,4.7832,4.7844,4.7915,4.7927,4.7926,4.7949,4.7939,4.796,4.7968,4.7976,4.7997,4.8033,4.8057,4.8092,4.8173,4.8175,4.8211,4.8222,4.8232,4.824,4.8281,4.8296,4.8134,4.8134,4.8134,0,0,4.7833,4.7849,4.7877,4.7927,4.7943,4.7986,4.7934,4.7983,4.8015,4.7975,4.8037,4.8043,4.8064,4.8137,4.817,4.8146,4.8285,4.8241,4.8249,4.8251,4.829,4.8305,4.8319,4.8139,4.8138,4.8138,0,0,4.7939,4.7957,4.8016,4.8033,4.8058,4.8057,4.8071,4.809,4.8093,4.8155,4.8126,4.8162,4.8226,4.8242,4.8258,4.8369,4.8343,4.8381,4.8441,4.8481,4.8494,4.8505,4.8542,4.8556,4.8389,4.8389,4.8389,0,4.7992,4.8059,4.8049,4.81,4.8121,4.8089,4.8147,4.8164,4.8198,4.8213,4.8186,4.8265,4.8277,4.8352,4.8379,4.8394,4.8407,4.8377,4.8494,4.8505,4.8515,4.855,4.8564,4.8393,4.8393,4.8392,4.8392,0,4.8122,4.8169,4.8213,4.8249,4.8275,4.833,4.8325,4.8352,4.834,4.834,4.8402,4.8416,4.8451,4.8469,4.8456,4.8541,4.8525,4.8497,4.8447,4.8535,4.8567,4.8581,4.8399,4.8398,4.8397,4.8395,0,0,4.8264,4.8293,4.8309,4.8324,4.8349,4.8384,4.8436,4.8472,4.8495,4.8519,4.8561,4.8616,4.8589,4.8607,4.8596,4.8632,4.8715,4.8598,4.8598,4.8617,4.8807,4.8827,4.8843,4.87,4.8702,4.8704,4.8804,0,4.8368,4.8461,4.8452,4.8538,4.8579,4.8549,4.8594,4.8613,4.8615,4.8649,4.865,4.8688,4.8651,4.8662,4.8696,4.8698,4.8753,4.8691,4.8735,4.8737,4.8729,4.886,4.8882,4.8975,4.8817,4.8819,4.8821,0,4.8503,4.8533,4.8624,4.8641,4.8658,4.8699,4.873,4.8764,4.8783,4.8782,4.8803,4.8785,4.8835,4.8786,4.8853,4.8811,4.8829,4.8832,4.8835,4.8837,4.8783,4.8863,4.9005,4.9018,4.8841,4.884,4.8838,0,4.8594,4.8658,4.8719,4.8733,4.8756,4.8785,4.8795,4.8812,4.8834,4.8861,4.8874,4.8906,4.8923,4.8947,4.8938,4.8904,4.9005,4.8957,4.9003,4.9003,4.9024,4.9022,4.9169,4.904,4.904,4.9039,4.9039,0,4.871,4.8766,4.8761,4.8798,4.8859,4.8848,4.8908,4.8914,4.893,4.8966,4.8943,4.8977,4.8964,4.8997,4.899,4.9044,4.9053,4.9051,4.9048,4.9052,4.9052,4.9061,4.9054,4.9043,4.9042,4.9041,4.9041,0,4.8821,4.8821,4.8886,4.8902,4.8907,4.8951,4.8963,4.8998,4.8998,4.9044,4.9055,4.9054,4.9092,4.9086,4.9127,4.9122,4.919,4.918,4.9183,4.918,4.9226,4.9221,4.9382,4.9401,4.9262,4.9263,4.9264,0,4.8894,4.8937,4.8958,4.8981,4.8994,4.9032,4.9054,4.9044,4.9068,4.9093,4.9124,4.916,4.9188,4.9249,4.9251,4.9282,4.9271,4.9325,4.9275,4.9277,4.9269,4.9265,4.9268,4.9334,4.9336,4.9337,4.9338,0,4.9023,4.902,4.9054,4.9088,4.9115,4.9141,4.9164,4.9184,4.9175,4.9203,4.9242,4.9263,4.9306,4.9341,4.937,4.9377,4.9356,4.9354,4.9366,4.9369,4.9369,4.9367,4.9208,4.935,4.9349,4.9348,4.9347,4.9347,4.9116,4.9151,4.9171,4.9209,4.9225,4.9247,4.928,4.9284,4.9317,4.9352,4.9343,4.9387,4.9403,4.944,4.9452,4.9484,4.9463,4.9481,4.9485,4.9489,4.9494,4.9366,4.9489,4.9489,4.9488,4.9488,4.9488,0,4.9241,4.9252,4.9288,4.9321,4.935,4.9329,4.9353,4.9378,4.9417,4.9435,4.9463,4.9507,4.954,4.9545,4.9577,4.9601,4.9592,4.9609,4.9606,4.9608,4.9511,4.9497,4.9616,4.9616,4.9616,4.9616,4.9616,4.9616,4.9309,4.9368,4.9367,4.9432,4.9442,4.9486,4.9501,4.952,4.9534,4.9584,4.9613,4.9616,4.9629,4.966,4.9689,4.969,4.9701,4.9722,4.9719,4.9628,4.9615,4.9603,4.9589,4.9725,4.9726,4.9812,4.9813,4.9813]}]]